Location: Hohe Wand Kleine Kanzel
(47.8330°N, 16.0170°E)
Time: 15:06:17
(UTC+02:00)

Tiros 1 - Visible Passes

Search period start: 04 August 2021 00:00
Search period end: 14 August 2021 00:00
Orbit: 630 x 664 km, 48.4° (Epoch: 03 August)

Date Brightness Start Highest point End Pass type
(mag) Time Alt. Az. Time Alt. Az. Time Alt. Az.
04 Aug 9.3 00:23:55 10° W 00:25:03 15° WSW 00:25:03 15° WSW visible
04 Aug 7.2 21:24:50 10° W 21:29:37 88° S 21:34:13 11° ESE visible
04 Aug 7.7 23:07:10 10° W 23:11:35 39° SSW 23:11:50 39° SSW visible
05 Aug 7.2 21:50:49 10° WNW 21:55:33 66° SSW 21:58:39 21° ESE visible
05 Aug 8.8 23:33:33 10° W 23:36:18 21° SW 23:36:18 21° SW visible
06 Aug 7.8 22:16:52 10° W 22:21:21 42° SSW 22:23:09 29° SSE visible
07 Aug 7.3 21:00:32 10° WNW 21:05:17 69° SSW 21:09:59 10° ESE visible
07 Aug 8.5 22:43:12 10° W 22:46:58 24° SW 22:47:42 23° SSW visible
08 Aug 7.8 21:26:34 10° W 21:31:06 44° SSW 21:34:38 15° SE visible
08 Aug 9.4 23:10:33 10° WSW 23:12:17 12° SW 23:12:17 12° SW visible
09 Aug 8.6 21:52:50 10° W 21:56:45 26° SW 21:59:17 17° S visible
10 Aug 9.4 22:19:58 10° WSW 22:22:13 13° SW 22:23:59 11° SSW visible
11 Aug 8.7 21:02:30 10° W 21:06:31 27° SW 21:10:30 10° SSE visible
12 Aug 9.5 21:29:26 10° WSW 21:32:00 15° SW 21:34:34 10° SSW visible
